CW8443 Weather Reports


Display with metric or nautical units.
time (UTC)temp
F
wind
direction
speed
MPH
gust
MPH
rain 1hr
in
rain 24hr
in
rain mn
in
humidity
%
barometer
mb
20260504034750 85 162 5.0 0.0 0.00 0.00 0.11 36 990.3
20260504034239 84 146 5.0 0.0 0.00 0.00 0.11 36 990.7
20260504033749 84 154 4.0 0.0 0.00 0.00 0.11 37 990.7
20260504033241 84 214 4.0 0.0 0.00 0.00 0.11 39 990.7
20260504033131 84 235 5.0 0.0 0.00 0.00 0.11 40 990.7
20260504032748 84 228 6.0 0.0 0.00 0.00 0.11 41 990.5
20260504032238 83 166 5.0 0.0 0.00 0.00 0.11 40 990.4
20260504031752 83 159 5.0 0.0 0.00 0.00 0.11 40 990.4
20260504031246 83 89 5.0 0.0 0.00 0.00 0.11 43 990.9
20260504030743 83 172 5.0 0.0 0.00 0.00 0.11 45 990.9
20260504030132 83 152 6.0 0.0 0.00 0.00 0.11 44 990.9
20260504025242 84 120 6.0 0.0 0.00 0.00 0.11 43 991.0
20260504024736 84 138 5.0 0.0 0.00 0.00 0.11 42 991.0
20260504024249 83 122 4.0 0.0 0.00 0.00 0.11 44 991.2
20260504023739 83 137 4.0 0.0 0.00 0.00 0.11 44 991.2
20260504023241 83 131 3.0 0.0 0.00 0.00 0.11 45 991.2
20260504023145 83 149 3.0 0.0 0.00 0.00 0.11 45 991.2
20260504022746 83 151 3.0 0.0 0.00 0.00 0.11 46 991.3
20260504022234 83 117 3.0 0.0 0.00 0.00 0.11 47 991.3
20260504021750 83 134 1.0 0.0 0.00 0.00 0.11 45 991.3
20260504021242 82 97 1.0 0.0 0.00 0.00 0.11 48 991.5
20260504020739 81 55 1.0 0.0 0.00 0.00 0.11 50 991.5
20260504020238 80 67 0.0 0.0 0.00 0.00 0.11 52 991.5
20260504020141 80 67 1.0 0.0 0.00 0.00 0.11 52 991.5
20260504014739 79 250 0.0 0.0 0.00 0.00 0.11 53 991.9
20260504014247 79 14 0.0 0.0 0.00 0.00 0.11 54 992.2
20260504013236 78 12 0.0 0.0 0.00 0.00 0.11 56 992.2
20260504013140 78 12 0.0 0.0 0.00 0.00 0.11 56 992.2
20260504012741 77 2 0.0 0.0 0.00 0.00 0.11 56 992.3
20260504012250 77 353 0.0 0.0 0.00 0.00 0.11 56 992.3
20260504011745 77 5 0.0 0.0 0.00 0.00 0.11 56 992.3
20260504011234 76 35 0.0 0.0 0.00 0.00 0.11 57 992.5
20260504010742 76 10 0.0 0.0 0.00 0.00 0.11 59 992.5
20260504010241 75 14 0.0 0.0 0.00 0.00 0.11 59 992.5
20260504010145 75 25 0.0 0.0 0.00 0.00 0.11 59 992.5
20260504005748 75 355 0.0 0.0 0.00 0.00 0.11 59 992.8
20260504005239 74 1 0.0 0.0 0.00 0.00 0.11 60 992.8
20260504004248 74 38 0.0 0.0 0.00 0.00 0.11 61 992.9
20260504003737 74 42 0.0 0.0 0.00 0.00 0.11 61 992.9
20260504003255 74 336 0.0 0.0 0.00 0.00 0.11 61 992.9
20260504002743 73 21 0.0 0.0 0.00 0.00 0.11 62 992.9
20260504002248 73 36 0.0 0.0 0.00 0.00 0.11 63 992.9
20260504001741 72 351 0.0 0.0 0.00 0.00 0.11 64 992.9
20260504001252 72 53 0.0 0.0 0.00 0.00 0.11 65 992.9
20260504000749 71 347 0.0 0.0 0.00 0.00 0.11 66 992.9
20260504000245 71 329 0.0 0.0 0.00 0.00 0.11 66 992.9
20260504000129 71 327 0.0 0.0 0.00 0.00 0.11 66 992.9
20260503235751 70 19 0.0 0.0 0.00 0.00 0.11 67 992.9
20260503235240 70 26 0.0 0.0 0.00 0.00 0.11 69 992.9
20260503234253 69 10 0.0 0.0 0.00 0.00 0.11 70 992.9
20260503233744 68 22 0.0 0.0 0.00 0.00 0.11 71 992.9
20260503233238 68 42 0.0 0.0 0.00 0.00 0.11 72 992.9
20260503232745 67 360 0.0 0.0 0.00 0.00 0.11 74 993.0
20260503231754 66 358 0.0 0.0 0.00 0.00 0.11 76 992.9
20260503231244 66 320 0.0 0.0 0.00 0.00 0.11 77 992.7
20260503230738 66 343 0.0 0.0 0.00 0.00 0.11 78 992.7
20260503230236 66 25 0.0 0.0 0.00 0.00 0.11 79 992.7
20260503230140 66 22 0.0 0.0 0.00 0.00 0.11 79 992.7
20260503225240 65 355 0.0 0.0 0.00 0.00 0.11 81 992.9
20260503224749 65 1 0.0 0.0 0.00 0.00 0.11 83 992.9
20260503223737 64 344 0.0 0.0 0.00 0.00 0.11 85 992.8
20260503223141 63 19 0.0 0.0 0.00 0.00 0.11 86 992.8
20260503222742 63 21 0.0 0.0 0.00 0.00 0.11 86 992.6
20260503222252 63 35 0.0 0.0 0.00 0.00 0.11 87 992.6
20260503221749 63 336 0.0 0.0 0.00 0.00 0.11 88 992.6
20260503220737 62 333 0.0 0.0 0.00 0.00 0.11 88 992.7
20260503220250 62 360 0.0 0.0 0.00 0.00 0.11 89 992.7
20260503220137 62 19 0.0 0.0 0.00 0.00 0.11 89 992.7
20260503215736 62 344 0.0 0.0 0.00 0.00 0.11 89 992.6
20260503215247 62 45 0.0 0.0 0.00 0.00 0.11 89 992.6
20260503214741 62 337 0.0 0.0 0.00 0.00 0.11 89 992.6
20260503214249 62 330 0.0 0.0 0.00 0.00 0.11 89 992.1
20260503213740 62 334 0.0 0.0 0.00 0.00 0.11 90 992.1
20260503213240 62 355 0.0 0.0 0.00 0.00 0.11 90 992.1
20260503213128 62 5 0.0 0.0 0.00 0.00 0.11 89 992.1
20260503212750 61 5 0.0 0.0 0.00 0.00 0.11 89 991.8
20260503212240 62 327 0.0 0.0 0.00 0.00 0.11 90 991.9
20260503211248 62 319 0.0 0.0 0.00 0.00 0.11 89 991.9
20260503210745 62 313 0.0 0.0 0.00 0.00 0.11 89 991.9
20260503210246 62 331 0.0 0.0 0.00 0.00 0.11 89 991.9
20260503210130 62 316 0.0 0.0 0.00 0.00 0.11 89 991.9
20260503205751 63 334 0.0 0.0 0.00 0.00 0.11 89 991.8
20260503204745 66 341 0.0 0.0 0.00 0.00 0.11 87 991.9
20260503204235 68 125 0.0 0.0 0.00 0.00 0.11 90 991.7
20260503203747 68 125 0.0 0.0 0.00 0.00 0.11 90 991.7
20260503203244 68 125 0.0 0.0 0.00 0.00 0.11 90 991.7
20260503202749 68 175 0.0 0.0 0.00 0.00 0.11 90 991.8
20260503201739 67 265 0.0 0.0 0.00 0.00 0.11 90 991.8
20260503201249 67 257 0.0 0.0 0.00 0.00 0.11 90 992.3
20260503200743 67 186 0.0 0.0 0.00 0.00 0.10 90 992.3
20260503200243 66 128 0.0 0.0 0.00 0.00 0.10 89 992.3
20260503200127 66 127 0.0 0.0 0.00 0.00 0.10 89 992.3
20260503195749 66 128 0.0 0.0 0.00 0.00 0.09 89 992.7
20260503195237 66 138 0.0 0.0 0.00 0.00 0.09 89 992.7
20260503194750 66 138 0.0 0.0 0.00 0.00 0.09 89 992.7
20260503194240 66 137 0.0 0.0 0.00 0.00 0.07 89 992.8
20260503193750 66 138 0.0 0.0 0.00 0.00 0.06 88 992.8
20260503193246 66 138 0.0 0.0 0.00 0.00 0.06 88 992.8
20260503192753 66 138 0.0 0.0 0.00 0.00 0.04 88 993.1
20260503192243 66 138 0.0 0.0 0.00 0.00 0.03 88 993.1
20260503191739 66 138 0.0 0.0 0.00 0.00 0.02 88 993.1
20260503191250 66 113 0.0 0.0 0.00 0.00 0.02 88 993.2
20260503190745 66 124 0.0 0.0 0.00 0.00 0.02 87 993.2
20260503190241 66 130 0.0 0.0 0.00 0.00 0.02 87 993.2
20260503190124 66 128 0.0 0.0 0.00 0.00 0.02 87 993.2
20260503185748 66 125 0.0 0.0 0.00 0.00 0.01 87 993.9
20260503184251 66 172 4.0 0.0 0.00 0.00 0.01 86 994.5
20260503183741 66 141 3.0 0.0 0.00 0.00 0.01 85 994.5
20260503183129 65 163 3.0 0.0 0.00 0.00 0.01 84 994.4
20260503182753 65 124 4.0 0.0 0.00 0.00 0.01 84 994.9
20260503182241 65 170 4.0 0.0 0.00 0.00 0.01 83 994.9
20260503181248 65 130 5.0 0.0 0.00 0.00 0.00 81 994.7
20260503180746 65 186 7.0 0.0 0.00 0.00 0.00 80 994.7
20260503180238 65 134 8.0 0.0 0.00 0.00 0.00 80 994.7
20260503180141 65 145 8.0 0.0 0.00 0.00 0.00 80 994.7
20260503175744 65 138 8.0 0.0 0.00 0.00 0.00 79 994.9
20260503175254 66 131 8.0 0.0 0.00 0.00 0.00 77 995.0
20260503174747 66 138 8.0 0.0 0.00 0.00 0.00 76 995.0
20260503174237 66 165 8.0 0.0 0.00 0.00 0.00 75 995.0
20260503173747 66 186 8.0 0.0 0.00 0.00 0.00 74 995.0
20260503173132 66 161 8.0 0.0 0.00 0.00 0.00 73 995.0
20260503172234 66 134 7.0 0.0 0.00 0.00 0.00 74 995.6
20260503171241 66 113 7.0 0.0 0.00 0.00 0.00 75 995.9
20260503170127 66 185 7.0 0.0 0.00 0.00 0.00 75 995.9
20260503160138 66 175 3.0 0.0 0.00 0.00 0.00 77 997.0
20260503150749 66 115 1.0 0.0 0.00 0.00 0.00 72 998.2
20260503150245 66 125 1.0 0.0 0.00 0.00 0.00 72 998.2
20260503150129 66 161 1.0 0.0 0.00 0.00 0.00 72 998.2
20260503140242 66 148 7.0 0.0 0.00 0.00 0.00 72 999.2
20260503140146 66 121 7.0 0.0 0.00 0.00 0.00 72 999.2
20260503131248 66 107 6.0 0.0 0.00 0.00 0.00 70 1000.6
20260503130248 66 172 6.0 0.0 0.00 0.00 0.00 69 1000.6
20260503120140 67 173 8.0 0.0 0.00 0.00 0.00 58 1001.3
20260503110739 69 179 8.0 0.0 0.00 0.00 0.00 53 1001.2
20260503110255 69 187 7.0 0.0 0.00 0.00 0.00 52 1001.2
20260503100256 70 214 6.0 0.0 0.00 0.00 0.00 41 1000.8
20260503100140 70 169 7.0 0.0 0.00 0.00 0.00 41 1000.8
20260503090257 73 166 5.0 0.0 0.00 0.00 0.00 34 1000.8
20260503090140 73 144 5.0 0.0 0.00 0.00 0.00 34 1000.8
20260503081256 74 227 7.0 0.0 0.00 0.00 0.00 35 1001.2
20260503080747 74 139 8.0 0.0 0.00 0.00 0.00 35 1001.2
20260503080242 74 152 8.0 0.0 0.00 0.00 0.00 35 1001.2
20260503080131 74 172 7.0 0.0 0.00 0.00 0.00 35 1001.2
20260503072247 74 240 9.0 0.0 0.00 0.00 0.00 33 1001.3
20260503071753 74 233 8.0 0.0 0.00 0.00 0.00 36 1001.3
20260503071239 74 172 8.0 0.0 0.00 0.00 0.00 35 1001.3
20260503070748 74 183 8.0 0.0 0.00 0.00 0.00 37 1001.3
20260503070245 74 182 8.0 0.0 0.00 0.00 0.00 38 1001.3
20260503070148 74 179 8.0 0.0 0.00 0.00 0.00 38 1001.3
20260502200245 58 1 0.0 0.0 0.00 0.00 0.00 59 1008.0
20260502195747 58 1 0.0 0.0 0.00 0.00 0.00 58 1008.1
20260502193746 59 340 0.0 0.0 0.00 0.00 0.00 57 1008.0
20260502193242 59 341 0.0 0.0 0.00 0.00 0.00 58 1008.0
20260502192749 59 333 0.0 0.0 0.00 0.00 0.00 59 1008.0
20260502192238 59 331 0.0 0.0 0.00 0.00 0.00 61 1008.0
20260502191747 59 331 0.0 0.0 0.00 0.00 0.00 61 1008.0
20260502190755 59 331 0.0 0.0 0.00 0.00 0.00 61 1008.0
20260502190140 59 331 0.0 0.0 0.00 0.00 0.00 61 1008.0
20260502184755 59 333 0.0 0.0 0.00 0.00 0.00 61 1008.0
20260502184243 59 331 0.0 0.0 0.00 0.00 0.00 61 1007.9
20260502183750 59 333 0.0 0.0 0.00 0.00 0.00 60 1007.9
20260502183248 59 333 0.0 0.0 0.00 0.00 0.00 60 1007.9
20260502183132 59 331 0.0 0.0 0.00 0.00 0.00 60 1007.9
20260502182755 59 331 0.0 0.0 0.00 0.00 0.00 60 1007.9
20260502182247 59 331 0.0 0.0 0.00 0.00 0.00 60 1007.9
20260502181744 59 331 0.0 0.0 0.00 0.00 0.00 60 1007.9
20260502181254 59 331 0.0 0.0 0.00 0.00 0.00 59 1007.6
20260502180751 59 331 0.0 0.0 0.00 0.00 0.00 59 1007.6
20260502180250 59 331 0.0 0.0 0.00 0.00 0.00 60 1007.6
20260502180134 59 333 0.0 0.0 0.00 0.00 0.00 60 1007.6
20260502170240 58 333 0.0 0.0 0.00 0.00 0.00 61 1007.7
20260502170143 58 331 0.0 0.0 0.00 0.00 0.00 61 1007.7
20260502164238 58 333 0.0 0.0 0.00 0.00 0.00 61 1007.8
20260502163748 58 331 0.0 0.0 0.00 0.00 0.00 61 1007.8
20260502163247 58 331 0.0 0.0 0.00 0.00 0.00 60 1007.8
20260502162755 58 333 0.0 0.0 0.00 0.00 0.00 60 1007.6
20260502162245 58 333 0.0 0.0 0.00 0.00 0.00 60 1007.6
20260502161737 58 331 0.0 0.0 0.00 0.00 0.00 60 1007.6
20260502161246 58 331 0.0 0.0 0.00 0.00 0.00 59 1007.7
20260502160738 58 331 0.0 0.0 0.00 0.00 0.00 59 1007.7
20260502160251 58 331 0.0 0.0 0.00 0.00 0.00 59 1007.7
20260502160135 58 331 0.0 0.0 0.00 0.00 0.00 59 1007.7